Location: Bogis-Bossey
(46.3500°N, 6.1667°E)
Time: 18:06:41
(UTC+00:00)

Cosmos 1408 Rocket - Pass Details

Date: 17 August 2022
Orbit: 599 x 631 km, 82.6° (Epoch: 30 September)

Event Time Altitude Azimuth Distance (km) Brightness Sun altitude
Exits shadow 21:02:51 17° 211° (SSW) 1,569 5.4 -20.9°
Maximum altitude 21:06:03 51° 283° (WNW) 791 4.3 -21.2°
Drops below altitude 10° 21:10:24 10° 359° (N) 2,015 6.9 -21.7°
Sets 21:12:43 0° 5° (N) 2,931 7.7 -21.9°
